Regional Weather Roundup
Issued by NWS Newport/Morehead, NC

Current Version | Previous Version | Graphics & Text | Print | Product List | Glossary Off
Versions: 1 2 3 4 5 6 7 8 9 10 11 12 13 14 15 16 17 18 19 20 21 22 23 24 25 26 27 28 29 30 31 32 33 34 35 36 37 38 39 40 41 42 43 44 45 46 47 48 49 50
000 ASUS42 KMHX 011813 RWRMHX WEATHER ROUNDUP FOR EASTERN NORTH CAROLINA NATIONAL WEATHER SERVICE NEWPORT/MOREHEAD CITY NC 200 PM EDT TUE SEP 01 2015 NOTE: "FAIR" INDICATES FEW OR NO CLOUDS BELOW 12,000 FEET WITH NO SIGNIFICANT WEATHER AND/OR OBSTRUCTIONS TO VISIBILITY NCZ015>017-031-032-045>047-102-103-011900- NORTH COAST CITY SKY/WX TMP DP RH WIND PRES REMARKS EDENTON PTSUNNY 81 70 69 W6 30.07F ELIZABETH CITY MOSUNNY 84 73 69 N6 30.06F KITTY HAWK CLEAR 85 73 65 NE5 30.05F MANTEO PTSUNNY 80 73 78 E7 30.06F $$ NCZ045>047-081-094-103-104-011900- CENTRAL COAST CITY SKY/WX TMP DP RH WIND PRES REMARKS FRISCO SUNNY 84 75 74 VRB6 30.05F SWANQUARTER N/A 82 N/A N/A NW2G9 30.03S $$ NCZ095-097-098-100-101-011900- SOUTHERN COAST CITY SKY/WX TMP DP RH WIND PRES REMARKS BEAUFORT MOSUNNY 81 74 79 SW7 30.06F CEDAR ISLAND N/A 81 N/A N/A NW7 30.09F JACKSONVILLE PTSUNNY 83 70 64 VRB5 30.07F PINEY ISLAND CLEAR N/A N/A N/A N7 30.06F WILMINGTON MOSUNNY 85 71 63 VRB6 30.07F $$ NCZ011>013-027>030-043-044-078>080-089-090>093-098-011900- COASTAL PLAIN CITY SKY/WX TMP DP RH WIND PRES REMARKS AHOSKIE MOSUNNY 80 71 73 CALM 30.08F CLINTON MOSUNNY 84 72 66 CALM 30.08F ELIZABETHTOWN MOSUNNY 85 69 58 NW3 30.08F GOLDSBORO MOSUNNY 85 71 62 VRB2 30.06F GREENVILLE MOSUNNY 82 72 69 CALM 30.09F HAVELOCK MOSUNNY 87 70 56 N8 30.07F KENANSVILLE PTSUNNY 82 69 63 CALM 30.09F KINSTON MOSUNNY 82 70 65 NE5 30.09F NEW BERN CLOUDY 82 70 66 VRB6 30.08F RICHLANDS PTSUNNY 82 68 61 N7 30.08F ROCKY MOUNT MOSUNNY 88 69 53 CALM 30.08F WASHINGTON MOSUNNY 79 70 74 CALM 30.08F WHITEVILLE MOSUNNY 86 69 57 N3 30.07F $$ AMZ130-135-150-152-154-156-158-170-250-252-270-ANZ085-086-088-633-658-670-011900- MARINE OBSERVATIONS STATION/POSITION TIME TEMP WIND PRES WAVE SWELL AIR SEA DIR/SP/G HT/PER HT/PER (UTC) (F) (DEG/KT/KT) (MB) (FT/S) (FT/S) CHESAPEAKE LIGHT 1800 77 40/ 2/ 3 1018.6 64 E VA BEACH 1750 78 79 30/ 6/ 6 1017.5 2/ 8 2/ 8 DUCK 1700 78 78 40/ 6/ 7 1017.6 2 E DUCK 1711 80 N/A 2/10 OREGON INLET 1700 79 79 20/ 9/ 12 1017.9 13E OREGON INLT 1700 79 N/A 2/11 HATTERAS CG 1700 79 80 340/ 8/ 9 1017.8 DIAMOND BUOY 1750 80 84 350/ 6/ 8 1017.7 3/ 7 2/ 7 CAPE LOOKOUT 1800 82 260/ 4/ 7 1017.7 BEAUFORT LAB 1700 81 78 210/ 6/ 8 1017.7 30 SE NEW RVR IN 1708 80 82 320/ 4/ 6 1019.1 30 SE NEW RVR IN 1725 82 N/A 3/ 7 27 SE WRIGHTSVLE 1700 75 82 360/ 6/ 8 N/A 5 SE WRIGHTSVLE 1708 80 82 90/ 2/ 4 1018.8 225 S CAPE HAT 1750 84 84 290/ 4/ 4 1019.2 3/ 6 3/ 6 41 SE CHARLESTON 1750 81 83 30/ 6/ 6 1019.0 3/ 8 3/ 8 $$

USA.gov is the U.S. government's official web portal to all federal, state and local government web resources and services.